Location: ???
(60.6398°N, 46.9067°E)
Time: 18:50:29
(UTC+00:00)

Meteor 1-14 Rocket - Pass Details

Date: 08 December 2019
Orbit: 833 x 919 km, 81.3° (Epoch: 17 January)

Event Time Altitude Azimuth Distance (km) Brightness Sun altitude
Rises 13:03:36 0° 342° (NNW) 3,574 7.3 -8.3°
Reaches altitude 10° 13:06:06 10° 342° (NNW) 2,623 6.6 -8.6°
Maximum altitude 13:12:07 86° 256° (WSW) 918 4.5 -9.2°
Drops below altitude 10° 13:18:00 10° 167° (SSE) 2,563 6.9 -9.8°
Sets 13:20:25 0° 167° (SSE) 3,487 7.6 -10.1°
